Simultaneous Nadir Overpasses (SNOs) Predictions

Prediction of SNOs between NOAA-19 and NPP Satellite Orbit:

Table of predicted SNOs for the next 14.0 days since TLE Epoch: 12/27/2019
Index Date (NOAA-19) Time (NOAA-19) Lat,Lon (NOAA-19) SZA (NOAA-19 ) Date (NPP) Time (NPP) Lat,Lon (NPP) SZA (NPP ) Distance(km) Time Diff (sec)
1 01/02/2020 15:21:01 79.67, -86.32 104.51 01/02/2020 15:22:02 79.67, -86.17 104.47 2.94 61
2 01/02/2020 16:11:56 -79.68, 81.06 75.50 01/02/2020 16:12:47 -79.68, 81.08 75.53 0.40 51
3 01/02/2020 17:03:01 79.69,-111.61 104.50 01/02/2020 17:03:32 79.68,-111.59 104.47 1.17 31
4 01/02/2020 17:53:56 -79.70, 55.77 75.51 01/02/2020 17:54:17 -79.68, 55.67 75.52 2.52 21
5 01/02/2020 18:45:01 79.71,-136.91 104.49 01/02/2020 18:45:02 79.68,-137.01 104.48 3.30 1
6 01/02/2020 19:35:57 -79.69, 30.18 75.52 01/02/2020 19:35:47 -79.69, 30.25 75.52 1.39 10
7 01/02/2020 20:27:02 79.70,-162.49 104.48 01/02/2020 20:26:32 79.69,-162.42 104.48 1.86 30
8 01/02/2020 21:17:57 -79.71, 4.89 75.53 01/02/2020 21:17:17 -79.69, 4.83 75.52 1.92 40
9 01/02/2020 22:09:02 79.72, 172.21 104.47 01/02/2020 22:08:02 79.69, 172.16 104.48 2.91 60




NCC Satellite Simultaneous Nadir Overpasses (SNOs) Prediction Service
